| time (UTC) | temp C | wind direction | speed KPH | gust KPH | rain 1hr cm | rain 24hr cm | rain mn cm | humidity % | barometer mb |
| 20260506105916 | 23 | 204 | 0.0 | 0.0 | 0.00 | 0.00 | 0.00 | 96 | 1009.7 |
| 20260506105412 | 23 | 196 | 0.0 | 1.6 | 0.00 | 0.00 | 0.00 | 96 | 1009.7 |
| 20260506104909 | 23 | 191 | 0.0 | 3.2 | 0.00 | 0.00 | 0.00 | 95 | 1009.7 |
| 20260506104408 | 23 | 213 | 1.6 | 3.2 | 0.00 | 0.00 | 0.00 | 95 | 1009.4 |
| 20260506103905 | 23 | 217 | 1.6 | 4.8 | 0.00 | 0.00 | 0.00 | 95 | 1009.5 |
| 20260506103402 | 23 | 255 | 4.8 | 9.7 | 0.00 | 0.00 | 0.00 | 95 | 1009.4 |
| 20260506102859 | 23 | 208 | 3.2 | 4.8 | 0.00 | 0.00 | 0.00 | 95 | 1009.4 |
| 20260506102357 | 23 | 228 | 1.6 | 3.2 | 0.00 | 0.00 | 0.00 | 95 | 1009.4 |
| 20260506101854 | 23 | 180 | 3.2 | 4.8 | 0.00 | 0.00 | 0.00 | 94 | 1009.4 |
| 20260506101350 | 23 | 224 | 3.2 | 4.8 | 0.00 | 0.00 | 0.00 | 94 | 1009.5 |
| 20260506100848 | 23 | 211 | 3.2 | 4.8 | 0.00 | 0.00 | 0.00 | 94 | 1009.4 |
| 20260506100346 | 24 | 219 | 1.6 | 12.9 | 0.00 | 0.00 | 0.00 | 94 | 1009.6 |
| 20260506095844 | 24 | 225 | 3.2 | 11.3 | 0.00 | 0.00 | 0.00 | 93 | 1009.5 |
| 20260506095341 | 24 | 249 | 6.4 | 14.5 | 0.00 | 0.00 | 0.00 | 94 | 1009.4 |
| 20260506094838 | 24 | 163 | 4.8 | 11.3 | 0.00 | 0.00 | 0.00 | 94 | 1009.3 |
| 20260506094337 | 24 | 173 | 3.2 | 12.9 | 0.00 | 0.00 | 0.00 | 94 | 1009.3 |
| 20260506093834 | 24 | 208 | 0.0 | 4.8 | 0.00 | 0.00 | 0.00 | 95 | 1009.2 |
| 20260506093331 | 24 | 182 | 1.6 | 3.2 | 0.00 | 0.00 | 0.00 | 95 | 1009.1 |
| 20260506092829 | 24 | 170 | 1.6 | 3.2 | 0.00 | 0.00 | 0.00 | 95 | 1009.0 |
| 20260506092327 | 24 | 184 | 3.2 | 4.8 | 0.00 | 0.00 | 0.00 | 95 | 1009.0 |
| 20260506091823 | 24 | 180 | 3.2 | 3.2 | 0.00 | 0.00 | 0.00 | 95 | 1009.2 |
| 20260506091321 | 24 | 158 | 3.2 | 4.8 | 0.00 | 0.00 | 0.00 | 95 | 1009.2 |
| 20260506090819 | 24 | 198 | 3.2 | 6.4 | 0.00 | 0.00 | 0.00 | 95 | 1009.2 |
| 20260506090316 | 24 | 229 | 1.6 | 3.2 | 0.00 | 0.00 | 0.00 | 95 | 1009.1 |
| 20260506085812 | 24 | 241 | 4.8 | 6.4 | 0.00 | 0.00 | 0.00 | 95 | 1009.0 |
| 20260506085308 | 24 | 246 | 1.6 | 4.8 | 0.00 | 0.00 | 0.00 | 94 | 1009.2 |
| 20260506084805 | 24 | 230 | 3.2 | 4.8 | 0.00 | 0.00 | 0.00 | 94 | 1009.2 |
| 20260506084302 | 24 | 195 | 4.8 | 6.4 | 0.00 | 0.00 | 0.00 | 94 | 1009.0 |
| 20260506083759 | 24 | 167 | 3.2 | 9.7 | 0.00 | 0.00 | 0.00 | 94 | 1009.1 |
| 20260506083256 | 24 | 217 | 3.2 | 4.8 | 0.00 | 0.00 | 0.00 | 94 | 1009.2 |
| 20260506082754 | 24 | 225 | 1.6 | 6.4 | 0.00 | 0.00 | 0.00 | 94 | 1009.2 |
| 20260506082249 | 24 | 206 | 3.2 | 4.8 | 0.00 | 0.00 | 0.00 | 94 | 1009.4 |
| 20260506081747 | 24 | 227 | 1.6 | 4.8 | 0.00 | 0.00 | 0.00 | 94 | 1009.1 |
| 20260506081244 | 24 | 223 | 1.6 | 6.4 | 0.00 | 0.00 | 0.00 | 94 | 1009.3 |
| 20260506080742 | 24 | 227 | 3.2 | 9.7 | 0.00 | 0.00 | 0.00 | 94 | 1009.4 |
| 20260506080238 | 24 | 224 | 3.2 | 4.8 | 0.00 | 0.00 | 0.00 | 94 | 1009.5 |
| 20260506073222 | 24 | 213 | 3.2 | 4.8 | 0.00 | 0.00 | 0.00 | 93 | 1009.7 |
| 20260506072719 | 24 | 156 | 3.2 | 6.4 | 0.00 | 0.00 | 0.00 | 93 | 1010.0 |
| 20260506072217 | 24 | 167 | 1.6 | 3.2 | 0.00 | 0.00 | 0.00 | 93 | 1009.9 |
| 20260506071714 | 24 | 202 | 1.6 | 9.7 | 0.00 | 0.00 | 0.00 | 93 | 1010.2 |
| 20260506071212 | 24 | 196 | 1.6 | 4.8 | 0.00 | 0.00 | 0.00 | 93 | 1010.2 |
| 20260506070709 | 25 | 222 | 1.6 | 3.2 | 0.00 | 0.00 | 0.00 | 93 | 1010.3 |
| 20260506070206 | 24 | 191 | 1.6 | 3.2 | 0.00 | 0.00 | 0.00 | 93 | 1010.3 |
| 20260506062143 | 25 | 248 | 4.8 | 9.7 | 0.00 | 0.00 | 0.00 | 92 | 1010.3 |
| 20260506061638 | 25 | 212 | 1.6 | 11.3 | 0.00 | 0.00 | 0.00 | 92 | 1010.1 |
| 20260506061136 | 25 | 247 | 3.2 | 6.4 | 0.00 | 0.00 | 0.00 | 92 | 1010.2 |
| 20260506060635 | 25 | 187 | 4.8 | 9.7 | 0.00 | 0.00 | 0.00 | 92 | 1010.3 |
| 20260506060131 | 25 | 217 | 1.6 | 9.7 | 0.00 | 0.00 | 0.00 | 92 | 1010.3 |
| 20260506051103 | 25 | 224 | 3.2 | 4.8 | 0.00 | 0.00 | 0.00 | 91 | 1009.9 |
| 20260506050601 | 25 | 166 | 8.0 | 12.9 | 0.00 | 0.00 | 0.00 | 90 | 1009.9 |
| 20260506045051 | 25 | 225 | 3.2 | 6.4 | 0.00 | 0.00 | 0.00 | 89 | 1010.1 |
| 20260506044550 | 25 | 189 | 3.2 | 4.8 | 0.00 | 0.00 | 0.00 | 89 | 1010.1 |
| 20260506044046 | 25 | 156 | 4.8 | 6.4 | 0.00 | 0.00 | 0.00 | 89 | 1010.2 |
| 20260506043543 | 25 | 221 | 1.6 | 14.5 | 0.00 | 0.00 | 0.00 | 89 | 1009.9 |
| 20260506043042 | 25 | 235 | 3.2 | 12.9 | 0.00 | 0.00 | 0.00 | 89 | 1010.0 |
| 20260506042540 | 25 | 196 | 3.2 | 11.3 | 0.00 | 0.00 | 0.00 | 89 | 1010.1 |
| 20260506042038 | 25 | 191 | 1.6 | 6.4 | 0.00 | 0.00 | 0.00 | 89 | 1010.2 |
| 20260506041536 | 25 | 239 | 3.2 | 6.4 | 0.00 | 0.00 | 0.00 | 89 | 1010.1 |
| 20260506041033 | 25 | 232 | 1.6 | 4.8 | 0.00 | 0.00 | 0.00 | 89 | 1010.2 |
| 20260506040531 | 25 | 208 | 1.6 | 6.4 | 0.00 | 0.00 | 0.00 | 89 | 1010.2 |
| 20260506040026 | 25 | 217 | 3.2 | 6.4 | 0.00 | 0.00 | 0.00 | 89 | 1009.8 |
| 20260506035523 | 25 | 227 | 4.8 | 6.4 | 0.00 | 0.00 | 0.00 | 89 | 1009.8 |
| 20260506035020 | 25 | 163 | 6.4 | 11.3 | 0.00 | 0.00 | 0.00 | 88 | 1009.9 |
| 20260506034518 | 25 | 153 | 3.2 | 6.4 | 0.00 | 0.00 | 0.00 | 88 | 1009.7 |
| 20260506034014 | 25 | 232 | 3.2 | 6.4 | 0.00 | 0.00 | 0.00 | 88 | 1009.7 |
| 20260506033512 | 25 | 145 | 6.4 | 11.3 | 0.00 | 0.00 | 0.00 | 88 | 1009.7 |
| 20260506033009 | 25 | 198 | 1.6 | 6.4 | 0.00 | 0.00 | 0.00 | 88 | 1009.7 |
| 20260506032506 | 25 | 168 | 1.6 | 4.8 | 0.00 | 0.00 | 0.00 | 88 | 1009.7 |
| 20260506032002 | 25 | 227 | 1.6 | 3.2 | 0.00 | 0.00 | 0.00 | 88 | 1009.7 |
| 20260506031500 | 25 | 210 | 0.0 | 1.6 | 0.00 | 0.00 | 0.00 | 88 | 1009.5 |
| 20260506030957 | 25 | 200 | 1.6 | 3.2 | 0.00 | 0.00 | 0.00 | 87 | 1009.7 |
| 20260506030455 | 25 | 181 | 3.2 | 4.8 | 0.00 | 0.00 | 0.00 | 87 | 1009.5 |
| 20260506025952 | 25 | 199 | 0.0 | 4.8 | 0.00 | 0.00 | 0.00 | 87 | 1009.5 |
| 20260506025449 | 25 | 208 | 0.0 | 4.8 | 0.00 | 0.00 | 0.00 | 87 | 1009.4 |
| 20260506024945 | 25 | 212 | 0.0 | 6.4 | 0.00 | 0.00 | 0.00 | 87 | 1009.3 |
| 20260506024442 | 25 | 228 | 1.6 | 1.6 | 0.00 | 0.00 | 0.00 | 86 | 1009.2 |
| 20260506023938 | 25 | 229 | 3.2 | 4.8 | 0.00 | 0.00 | 0.00 | 86 | 1009.3 |
| 20260506023435 | 25 | 216 | 0.0 | 4.8 | 0.00 | 0.00 | 0.00 | 86 | 1009.0 |
| 20260506022931 | 25 | 218 | 1.6 | 6.4 | 0.00 | 0.00 | 0.00 | 86 | 1008.8 |
| 20260506022429 | 25 | 210 | 1.6 | 6.4 | 0.00 | 0.00 | 0.00 | 86 | 1008.7 |
| 20260506021927 | 25 | 208 | 3.2 | 4.8 | 0.00 | 0.00 | 0.00 | 86 | 1008.8 |
| 20260506021424 | 26 | 213 | 1.6 | 3.2 | 0.00 | 0.00 | 0.00 | 85 | 1008.7 |
| 20260506020921 | 26 | 203 | 0.0 | 3.2 | 0.00 | 0.00 | 0.00 | 85 | 1008.7 |
| 20260506020419 | 26 | 164 | 6.4 | 11.3 | 0.00 | 0.00 | 0.00 | 84 | 1008.6 |
| 20260506015916 | 26 | 152 | 3.2 | 6.4 | 0.00 | 0.00 | 0.00 | 84 | 1008.5 |
| 20260506015413 | 26 | 195 | 3.2 | 4.8 | 0.00 | 0.00 | 0.00 | 84 | 1008.4 |
| 20260506014910 | 26 | 193 | 1.6 | 4.8 | 0.00 | 0.00 | 0.00 | 84 | 1008.4 |
| 20260506014407 | 26 | 156 | 8.0 | 11.3 | 0.00 | 0.00 | 0.00 | 84 | 1008.4 |
| 20260506013904 | 26 | 250 | 3.2 | 6.4 | 0.00 | 0.00 | 0.00 | 84 | 1008.2 |
| 20260506013402 | 26 | 172 | 3.2 | 6.4 | 0.00 | 0.00 | 0.00 | 84 | 1008.0 |
| 20260506012857 | 26 | 197 | 3.2 | 4.8 | 0.00 | 0.00 | 0.00 | 84 | 1008.2 |
| 20260506012354 | 26 | 177 | 3.2 | 3.2 | 0.00 | 0.00 | 0.00 | 84 | 1008.2 |
| 20260506011851 | 26 | 184 | 3.2 | 4.8 | 0.00 | 0.00 | 0.00 | 84 | 1008.0 |
| 20260506011348 | 26 | 163 | 3.2 | 4.8 | 0.00 | 0.00 | 0.00 | 83 | 1007.9 |
| 20260506010845 | 26 | 194 | 3.2 | 4.8 | 0.00 | 0.00 | 0.00 | 83 | 1008.0 |
| 20260506010344 | 26 | 157 | 4.8 | 6.4 | 0.00 | 0.00 | 0.00 | 83 | 1007.8 |
| 20260506005840 | 26 | 202 | 1.6 | 4.8 | 0.00 | 0.00 | 0.00 | 82 | 1007.7 |
| 20260506005337 | 26 | 191 | 3.2 | 11.3 | 0.00 | 0.00 | 0.00 | 82 | 1007.7 |
| 20260506004833 | 26 | 227 | 1.6 | 4.8 | 0.00 | 0.00 | 0.00 | 82 | 1007.7 |
| 20260506004331 | 26 | 231 | 1.6 | 14.5 | 0.00 | 0.00 | 0.00 | 81 | 1007.7 |
| 20260506003827 | 26 | 230 | 1.6 | 3.2 | 0.00 | 0.00 | 0.00 | 81 | 1007.7 |
| 20260506003323 | 26 | 249 | 6.4 | 9.7 | 0.00 | 0.00 | 0.00 | 81 | 1007.5 |
| 20260506002819 | 26 | 171 | 8.0 | 9.7 | 0.00 | 0.00 | 0.00 | 81 | 1007.6 |
| 20260506002316 | 26 | 174 | 3.2 | 4.8 | 0.00 | 0.00 | 0.00 | 81 | 1007.6 |
| 20260506001812 | 27 | 215 | 3.2 | 6.4 | 0.00 | 0.00 | 0.00 | 80 | 1007.8 |
| 20260506001309 | 27 | 240 | 4.8 | 6.4 | 0.00 | 0.00 | 0.00 | 80 | 1007.8 |
| 20260506000806 | 27 | 237 | 3.2 | 6.4 | 0.00 | 0.00 | 0.00 | 80 | 1007.7 |
| 20260506000304 | 27 | 198 | 6.4 | 9.7 | 0.00 | 0.00 | 0.00 | 81 | 1007.6 |
| 20260505235800 | 27 | 211 | 3.2 | 9.7 | 0.00 | 0.00 | 0.00 | 81 | 1007.5 |
| 20260505235258 | 27 | 190 | 3.2 | 12.9 | 0.00 | 0.00 | 0.00 | 80 | 1007.6 |
| 20260505234754 | 27 | 235 | 4.8 | 9.7 | 0.00 | 0.00 | 0.00 | 80 | 1007.7 |
| 20260505234252 | 27 | 216 | 6.4 | 12.9 | 0.00 | 0.00 | 0.00 | 80 | 1007.6 |
| 20260505233749 | 27 | 137 | 3.2 | 11.3 | 0.00 | 0.00 | 0.00 | 80 | 1007.5 |
| 20260505233247 | 27 | 201 | 1.6 | 9.7 | 0.00 | 0.00 | 0.00 | 80 | 1007.3 |
| 20260505232744 | 27 | 216 | 1.6 | 11.3 | 0.00 | 0.00 | 0.00 | 79 | 1007.4 |
| 20260505232241 | 27 | 180 | 3.2 | 6.4 | 0.00 | 0.00 | 0.00 | 79 | 1007.4 |
| 20260505231737 | 27 | 235 | 3.2 | 11.3 | 0.00 | 0.00 | 0.00 | 79 | 1007.3 |
| 20260505231237 | 27 | 222 | 3.2 | 6.4 | 0.00 | 0.00 | 0.00 | 78 | 1007.2 |
| 20260505230734 | 27 | 186 | 3.2 | 6.4 | 0.00 | 0.00 | 0.00 | 78 | 1007.5 |
| 20260505230231 | 27 | 187 | 1.6 | 11.3 | 0.00 | 0.00 | 0.00 | 78 | 1007.3 |
| 20260505225727 | 28 | 217 | 6.4 | 9.7 | 0.00 | 0.00 | 0.00 | 77 | 1007.6 |
| 20260505225225 | 28 | 210 | 1.6 | 4.8 | 0.00 | 0.00 | 0.00 | 78 | 1007.5 |
| 20260505224720 | 27 | 236 | 6.4 | 11.3 | 0.00 | 0.00 | 0.00 | 78 | 1007.5 |
| 20260505224218 | 28 | 224 | 1.6 | 9.7 | 0.00 | 0.00 | 0.00 | 78 | 1007.3 |
| 20260505223715 | 28 | 170 | 8.0 | 11.3 | 0.00 | 0.00 | 0.00 | 78 | 1007.4 |
| 20260505223211 | 28 | 129 | 4.8 | 11.3 | 0.00 | 0.00 | 0.00 | 77 | 1007.3 |
| 20260505222707 | 28 | 144 | 3.2 | 4.8 | 0.00 | 0.00 | 0.00 | 76 | 1007.2 |
| 20260505222203 | 28 | 167 | 12.9 | 17.7 | 0.00 | 0.00 | 0.00 | 75 | 1007.6 |
| 20260505221701 | 28 | 223 | 1.6 | 9.7 | 0.00 | 0.00 | 0.00 | 75 | 1007.4 |
| 20260505221157 | 28 | 219 | 3.2 | 6.4 | 0.00 | 0.00 | 0.00 | 75 | 1007.6 |
| 20260505220654 | 28 | 226 | 3.2 | 20.9 | 0.00 | 0.00 | 0.00 | 75 | 1007.4 |
| 20260505220152 | 28 | 203 | 4.8 | 9.7 | 0.00 | 0.00 | 0.00 | 76 | 1007.4 |
| 20260505215649 | 28 | 260 | 6.4 | 9.7 | 0.00 | 0.00 | 0.00 | 75 | 1007.6 |
| 20260505215147 | 28 | 204 | 3.2 | 9.7 | 0.00 | 0.00 | 0.00 | 75 | 1007.7 |
| 20260505214645 | 28 | 193 | 4.8 | 6.4 | 0.00 | 0.00 | 0.00 | 75 | 1007.6 |
| 20260505214142 | 28 | 227 | 4.8 | 14.5 | 0.00 | 0.00 | 0.00 | 75 | 1008.0 |
| 20260505213640 | 28 | 238 | 4.8 | 12.9 | 0.00 | 0.00 | 0.00 | 75 | 1008.2 |
| 20260505213136 | 28 | 287 | 6.4 | 11.3 | 0.00 | 0.00 | 0.00 | 74 | 1008.0 |
| 20260505212632 | 28 | 215 | 4.8 | 14.5 | 0.00 | 0.00 | 0.00 | 74 | 1008.2 |
| 20260505212130 | 28 | 211 | 6.4 | 11.3 | 0.00 | 0.00 | 0.00 | 74 | 1008.0 |
| 20260505211627 | 28 | 219 | 6.4 | 12.9 | 0.00 | 0.00 | 0.00 | 74 | 1008.3 |
| 20260505211124 | 28 | 225 | 3.2 | 9.7 | 0.00 | 0.00 | 0.00 | 74 | 1008.0 |
| 20260505210620 | 28 | 202 | 6.4 | 14.5 | 0.00 | 0.00 | 0.00 | 75 | 1008.3 |
| 20260505210117 | 28 | 156 | 8.0 | 11.3 | 0.00 | 0.00 | 0.00 | 75 | 1008.3 |
| 20260505205615 | 29 | 210 | 6.4 | 11.3 | 0.00 | 0.00 | 0.00 | 73 | 1008.4 |
| 20260505205113 | 28 | 149 | 1.6 | 9.7 | 0.00 | 0.00 | 0.00 | 75 | 1008.4 |
| 20260505204609 | 28 | 241 | 3.2 | 12.9 | 0.00 | 0.00 | 0.00 | 75 | 1008.5 |
| 20260505204107 | 28 | 214 | 6.4 | 12.9 | 0.00 | 0.00 | 0.00 | 75 | 1008.4 |
| 20260505203603 | 29 | 202 | 3.2 | 9.7 | 0.00 | 0.00 | 0.00 | 74 | 1008.6 |
| 20260505203101 | 29 | 235 | 6.4 | 11.3 | 0.00 | 0.00 | 0.00 | 74 | 1008.6 |
| 20260505202556 | 28 | 158 | 6.4 | 9.7 | 0.00 | 0.00 | 0.00 | 77 | 1008.7 |
| 20260505202052 | 28 | 235 | 6.4 | 14.5 | 0.00 | 0.00 | 0.00 | 77 | 1008.9 |
| 20260505201549 | 28 | 231 | 1.6 | 6.4 | 0.00 | 0.00 | 0.00 | 76 | 1008.8 |
| 20260505201047 | 28 | 218 | 3.2 | 16.1 | 0.00 | 0.00 | 0.00 | 76 | 1009.1 |
| 20260505200545 | 28 | 233 | 3.2 | 14.5 | 0.00 | 0.00 | 0.00 | 74 | 1009.0 |
| 20260505200041 | 28 | 191 | 4.8 | 14.5 | 0.00 | 0.00 | 0.00 | 75 | 1009.2 |
| 20260505195537 | 29 | 222 | 3.2 | 6.4 | 0.00 | 0.00 | 0.00 | 75 | 1009.2 |
| 20260505195035 | 28 | 208 | 3.2 | 11.3 | 0.00 | 0.00 | 0.00 | 74 | 1009.2 |
| 20260505194532 | 28 | 186 | 4.8 | 14.5 | 0.00 | 0.00 | 0.00 | 75 | 1009.4 |
| 20260505194027 | 28 | 231 | 3.2 | 11.3 | 0.00 | 0.00 | 0.00 | 74 | 1009.4 |
| 20260505193525 | 28 | 209 | 4.8 | 6.4 | 0.00 | 0.00 | 0.00 | 75 | 1009.5 |
| 20260505193022 | 28 | 243 | 3.2 | 9.7 | 0.00 | 0.00 | 0.00 | 75 | 1009.5 |
| 20260505192521 | 28 | 191 | 8.0 | 14.5 | 0.00 | 0.00 | 0.00 | 76 | 1009.4 |
| 20260505192018 | 28 | 187 | 4.8 | 9.7 | 0.00 | 0.00 | 0.00 | 76 | 1009.4 |
| 20260505191516 | 27 | 229 | 6.4 | 12.9 | 0.00 | 0.00 | 0.00 | 77 | 1009.5 |
| 20260505191014 | 28 | 198 | 6.4 | 11.3 | 0.00 | 0.00 | 0.00 | 77 | 1009.7 |
| 20260505190508 | 28 | 208 | 9.7 | 16.1 | 0.00 | 0.00 | 0.00 | 76 | 1009.5 |
| 20260505190004 | 28 | 226 | 4.8 | 9.7 | 0.00 | 0.00 | 0.00 | 77 | 1009.6 |
| 20260505185501 | 28 | 207 | 3.2 | 6.4 | 0.00 | 0.00 | 0.00 | 77 | 1009.7 |
| 20260505184957 | 28 | 261 | 6.4 | 12.9 | 0.00 | 0.00 | 0.00 | 77 | 1009.8 |
| 20260505184454 | 28 | 208 | 3.2 | 11.3 | 0.00 | 0.00 | 0.00 | 78 | 1009.8 |
| 20260505183950 | 28 | 223 | 0.0 | 9.7 | 0.00 | 0.00 | 0.00 | 79 | 1009.6 |
| 20260505183448 | 27 | 179 | 3.2 | 6.4 | 0.00 | 0.00 | 0.00 | 81 | 1009.8 |
| 20260505182944 | 26 | 209 | 6.4 | 9.7 | 0.00 | 0.00 | 0.00 | 82 | 1009.8 |
| 20260505182442 | 26 | 282 | 3.2 | 6.4 | 0.00 | 0.00 | 0.00 | 83 | 1010.0 |
| 20260505181937 | 26 | 192 | 3.2 | 6.4 | 0.00 | 0.00 | 0.00 | 84 | 1010.1 |
| 20260505181435 | 26 | 212 | 3.2 | 4.8 | 0.00 | 0.00 | 0.00 | 84 | 1009.9 |
| 20260505180932 | 26 | 218 | 6.4 | 9.7 | 0.00 | 0.00 | 0.00 | 84 | 1010.0 |
| 20260505180428 | 26 | 257 | 6.4 | 9.7 | 0.00 | 0.00 | 0.00 | 83 | 1010.0 |
| 20260505175925 | 26 | 236 | 3.2 | 4.8 | 0.00 | 0.00 | 0.00 | 83 | 1010.0 |
| 20260505175421 | 26 | 255 | 6.4 | 9.7 | 0.00 | 0.00 | 0.00 | 83 | 1010.1 |
| 20260505174918 | 26 | 243 | 4.8 | 9.7 | 0.00 | 0.00 | 0.00 | 84 | 1010.1 |
| 20260505174415 | 26 | 257 | 4.8 | 9.7 | 0.00 | 0.00 | 0.00 | 84 | 1010.1 |
| 20260505173912 | 26 | 222 | 6.4 | 9.7 | 0.00 | 0.00 | 0.00 | 84 | 1010.2 |
| 20260505173408 | 26 | 206 | 1.6 | 14.5 | 0.00 | 0.00 | 0.00 | 83 | 1010.3 |
| 20260505172905 | 26 | 248 | 8.0 | 12.9 | 0.00 | 0.00 | 0.00 | 83 | 1010.1 |
| 20260505172357 | 26 | 150 | 3.2 | 9.7 | 0.00 | 0.00 | 0.00 | 83 | 1010.2 |
| 20260505171857 | 26 | 233 | 6.4 | 12.9 | 0.00 | 0.00 | 0.00 | 83 | 1010.2 |
| 20260505171353 | 26 | 167 | 6.4 | 12.9 | 0.00 | 0.00 | 0.00 | 84 | 1010.3 |
| 20260505170850 | 26 | 166 | 4.8 | 11.3 | 0.00 | 0.00 | 0.00 | 85 | 1010.3 |
| 20260505170347 | 26 | 226 | 1.6 | 11.3 | 0.00 | 0.00 | 0.00 | 84 | 1010.4 |
| 20260505165842 | 26 | 142 | 6.4 | 11.3 | 0.00 | 0.00 | 0.00 | 85 | 1010.5 |
| 20260505165339 | 26 | 233 | 6.4 | 14.5 | 0.00 | 0.00 | 0.00 | 84 | 1010.4 |
| 20260505164834 | 26 | 173 | 3.2 | 11.3 | 0.00 | 0.00 | 0.00 | 85 | 1010.5 |
| 20260505164331 | 26 | 245 | 1.6 | 14.5 | 0.00 | 0.00 | 0.00 | 85 | 1010.6 |
| 20260505163829 | 26 | 232 | 0.0 | 6.4 | 0.00 | 0.00 | 0.00 | 85 | 1010.5 |
| 20260505163328 | 25 | 222 | 4.8 | 9.7 | 0.00 | 0.00 | 0.00 | 85 | 1010.6 |
| 20260505162826 | 25 | 230 | 1.6 | 4.8 | 0.00 | 0.00 | 0.00 | 86 | 1010.8 |
| 20260505162321 | 25 | 204 | 1.6 | 11.3 | 0.00 | 0.00 | 0.00 | 87 | 1010.5 |
| 20260505161819 | 25 | 186 | 3.2 | 6.4 | 0.00 | 0.00 | 0.00 | 87 | 1010.6 |
| 20260505161317 | 25 | 193 | 4.8 | 6.4 | 0.00 | 0.00 | 0.00 | 88 | 1010.7 |
| 20260505160814 | 25 | 240 | 6.4 | 9.7 | 0.00 | 0.00 | 0.00 | 88 | 1010.5 |
| 20260505160311 | 25 | 243 | 3.2 | 4.8 | 0.00 | 0.00 | 0.00 | 88 | 1010.4 |
| 20260505153250 | 25 | 152 | 4.8 | 12.9 | 0.00 | 0.00 | 0.00 | 87 | 1010.1 |
| 20260505152747 | 25 | 227 | 6.4 | 11.3 | 0.00 | 0.00 | 0.00 | 87 | 1010.1 |
| 20260505152243 | 25 | 228 | 4.8 | 6.4 | 0.00 | 0.00 | 0.00 | 87 | 1010.3 |
| 20260505151738 | 25 | 206 | 3.2 | 9.7 | 0.00 | 0.00 | 0.00 | 87 | 1010.3 |
| 20260505151236 | 25 | 222 | 3.2 | 6.4 | 0.00 | 0.00 | 0.00 | 87 | 1010.2 |
| 20260505150732 | 25 | 202 | 1.6 | 12.9 | 0.00 | 0.00 | 0.00 | 87 | 1010.1 |
| 20260505150230 | 24 | 200 | 3.2 | 9.7 | 0.00 | 0.00 | 0.00 | 88 | 1010.2 |
| 20260505140159 | 23 | 220 | 1.6 | 11.3 | 0.00 | 0.00 | 0.00 | 91 | 1009.8 |
| 20260505130123 | 22 | 208 | 1.6 | 6.4 | 0.00 | 0.00 | 0.00 | 94 | 1009.8 |
| 20260505124613 | 22 | 155 | 4.8 | 6.4 | 0.00 | 0.00 | 0.00 | 95 | 1009.8 |
| 20260505124109 | 21 | 203 | 3.2 | 6.4 | 0.00 | 0.00 | 0.00 | 95 | 1009.4 |
| 20260505123605 | 21 | 189 | 1.6 | 6.4 | 0.00 | 0.00 | 0.00 | 95 | 1009.5 |
| 20260505123102 | 21 | 208 | 3.2 | 3.2 | 0.00 | 0.00 | 0.00 | 95 | 1009.4 |
| 20260505122558 | 21 | 185 | 1.6 | 4.8 | 0.00 | 0.00 | 0.00 | 96 | 1009.7 |
| 20260505122056 | 21 | 219 | 1.6 | 6.4 | 0.00 | 0.00 | 0.00 | 96 | 1009.7 |
| 20260505121552 | 21 | 202 | 1.6 | 3.2 | 0.00 | 0.00 | 0.00 | 96 | 1009.7 |
| 20260505121049 | 21 | 191 | 0.0 | 3.2 | 0.00 | 0.00 | 0.00 | 96 | 1009.6 |
| 20260505120545 | 21 | 208 | 1.6 | 11.3 | 0.00 | 0.00 | 0.00 | 96 | 1009.7 |
| 20260505120041 | 21 | 213 | 0.0 | 1.6 | 0.00 | 0.00 | 0.00 | 96 | 1009.6 |
| 20260505115536 | 21 | 186 | 3.2 | 6.4 | 0.00 | 0.00 | 0.00 | 96 | 1009.2 |
| 20260505115034 | 21 | 233 | 1.6 | 4.8 | 0.00 | 0.00 | 0.00 | 96 | 1009.3 |
| 20260505114531 | 21 | 232 | 4.8 | 6.4 | 0.00 | 0.00 | 0.00 | 96 | 1009.3 |
| 20260505114027 | 21 | 191 | 1.6 | 3.2 | 0.00 | 0.00 | 0.00 | 96 | 1009.2 |
| 20260505113523 | 21 | 197 | 1.6 | 3.2 | 0.00 | 0.00 | 0.00 | 96 | 1009.2 |
| 20260505113020 | 21 | 222 | 1.6 | 3.2 | 0.00 | 0.00 | 0.00 | 96 | 1009.5 |
| 20260505112517 | 21 | 205 | 1.6 | 4.8 | 0.00 | 0.00 | 0.00 | 96 | 1009.8 |
| 20260505112015 | 21 | 220 | 0.0 | 3.2 | 0.00 | 0.00 | 0.00 | 95 | 1009.5 |
| 20260505111513 | 21 | 215 | 0.0 | 3.2 | 0.00 | 0.00 | 0.00 | 95 | 1009.3 |
| 20260505111010 | 21 | 204 | 1.6 | 4.8 | 0.00 | 0.00 | 0.00 | 95 | 1009.5 |
| 20260505110507 | 21 | 212 | 1.6 | 4.8 | 0.00 | 0.00 | 0.00 | 95 | 1009.4 |